Location: ????????
(55.8351°N, 38.7040°E)
Time: 21:51:38
(UTC+00:00)

Cosmos 1420 Rocket - Pass Details

Date: 14 April 2024
Orbit: 752 x 779 km, 74.0° (Epoch: 22 May)

Event Time Altitude Azimuth Distance (km) Brightness Sun altitude
Rises 00:27:51 0° 331° (NNW) 3,236 7.4 -14.5°
Reaches altitude 10° 00:30:14 10° 332° (NNW) 2,310 6.7 -14.3°
Maximum altitude 00:35:30 85° 62° (ENE) 779 4.1 -13.7°
Drops below altitude 10° 00:40:46 10° 151° (SSE) 2,314 6.4 -13.2°
Sets 00:43:08 0° 152° (SSE) 3,241 7.1 -12.9°
